Orbital Elements at Epoch 2459000.5 (2020-May-31.0) TDB
Reference: JPL 14 (heliocentric ecliptic J2000)
Element | Value | Uncertainty (1-sigma) | Units |
e | .1148354571466767 | 5.8124e-08 | |
a | 3.09322441623888 | 3.2627e-08 | au |
q | 2.738012576342826 | 1.8737e-07 | au |
i | 4.705964856398103 | 6.2395e-06 | deg |
node | 209.2013487485637 | 6.4477e-05 | deg |
peri | 210.0542290232177 | 7.0036e-05 | deg |
M | 319.7833089974137 | 2.5224e-05 | deg |
tp | 2459222.482840752485 (2021-Jan-07.98284075) | 0.0001393 | TDB |
period | 1987.081002406572 5.44 | 3.144e-05 8.608e-08 | d yr |
n | .181170269135481 | 2.8665e-09 | deg/d |
Q | 3.448436256134935 | 3.6374e-08 | au |
|
| | Orbit Determination Parameters
Additional Information
|